CW5307 Weather Reports


time (UTC)temp
C
wind
direction
speed
KPH
gust
KPH
rain 1hr
cm
rain 24hr
cm
rain mn
cm
humidity
%
barometer
mb
20260504100244 7 257 0.0 0.0 0.00 0.00 0.00 76 1011.5
20260504081744 7 257 0.0 0.0 0.00 0.00 0.00 76 1012.0
20260504081247 7 257 0.0 0.0 0.00 0.00 0.00 76 1012.0
20260504080741 7 257 0.0 0.0 0.00 0.00 0.00 76 1012.0
20260504080244 7 257 0.0 0.0 0.00 0.00 0.00 76 1012.0
20260504070241 6 257 0.0 3.2 0.00 0.00 0.00 76 1012.2
20260504060241 5 257 0.0 1.6 0.00 0.00 0.00 75 1012.3
20260504050742 6 257 0.0 1.6 0.00 0.00 0.00 72 1012.3
20260504050241 6 257 0.0 0.0 0.00 0.00 0.00 72 1012.3
20260504045741 6 257 0.0 0.0 0.00 0.00 0.00 72 1012.3
20260504045242 6 257 0.0 1.6 0.00 0.00 0.00 71 1012.3
20260504044748 6 257 1.6 1.6 0.00 0.00 0.00 71 1012.3
20260504044244 6 257 0.0 0.0 0.00 0.00 0.00 71 1012.3
20260504043744 6 257 0.0 0.0 0.00 0.00 0.00 71 1012.3
20260504043244 6 257 0.0 1.6 0.00 0.00 0.00 70 1012.3
20260504042747 6 257 1.6 1.6 0.00 0.00 0.00 70 1012.4
20260504042241 6 257 0.0 0.0 0.00 0.00 0.00 70 1012.4
20260504041745 6 257 0.0 1.6 0.00 0.00 0.00 69 1012.4
20260504041241 6 257 0.0 3.2 0.00 0.00 0.00 69 1012.3
20260504040748 6 257 0.0 0.0 0.00 0.00 0.00 69 1012.3
20260504040242 6 257 0.0 0.0 0.00 0.00 0.00 68 1012.3
20260504035741 6 257 0.0 0.0 0.00 0.00 0.00 68 1012.2
20260504035242 6 257 0.0 1.6 0.00 0.00 0.00 68 1012.2
20260504034741 6 257 0.0 0.0 0.00 0.00 0.00 67 1012.2
20260504034241 6 257 0.0 0.0 0.00 0.00 0.00 67 1012.0
20260504033742 6 257 0.0 0.0 0.00 0.00 0.00 67 1012.1
20260504033244 7 257 0.0 1.6 0.00 0.00 0.00 66 1012.1
20260504032748 7 257 0.0 0.0 0.00 0.00 0.00 66 1011.9
20260504032241 7 257 0.0 1.6 0.00 0.00 0.00 66 1011.9
20260504031741 7 257 0.0 1.6 0.00 0.00 0.00 65 1011.9
20260504031244 7 257 1.6 1.6 0.00 0.00 0.00 65 1011.8
20260504030747 7 257 0.0 0.0 0.00 0.00 0.00 65 1011.8
20260504030244 7 257 0.0 0.0 0.00 0.00 0.00 63 1011.8
20260504025744 7 257 0.0 1.6 0.00 0.00 0.00 63 1011.8
20260504025241 8 257 0.0 1.6 0.00 0.00 0.00 62 1011.8
20260504024748 8 257 0.0 0.0 0.00 0.00 0.00 62 1011.8
20260504024247 8 257 0.0 0.0 0.00 0.00 0.00 62 1011.8
20260504023750 8 257 0.0 0.0 0.00 0.00 0.00 61 1011.8
20260504023241 8 257 0.0 0.0 0.00 0.00 0.00 61 1011.8
20260504022741 8 257 0.0 0.0 0.00 0.00 0.00 60 1011.8
20260504022248 8 257 0.0 1.6 0.00 0.00 0.00 59 1011.8
20260504021745 8 257 0.0 1.6 0.00 0.00 0.00 58 1011.8
20260504021241 9 257 1.6 3.2 0.00 0.00 0.00 57 1011.8
20260504020741 9 257 0.0 0.0 0.00 0.00 0.00 57 1011.8
20260504020247 9 257 0.0 0.0 0.00 0.00 0.00 56 1011.8
20260504015745 10 257 0.0 0.0 0.00 0.00 0.00 56 1011.7
20260504015244 10 257 0.0 0.0 0.00 0.00 0.00 54 1011.7
20260504014747 10 257 0.0 1.6 0.00 0.00 0.00 54 1011.7
20260504014242 10 257 1.6 3.2 0.00 0.00 0.00 53 1011.7
20260504013747 10 257 0.0 0.0 0.00 0.00 0.00 51 1011.7
20260504013241 10 257 0.0 0.0 0.00 0.00 0.00 51 1011.7
20260504012744 10 257 0.0 0.0 0.00 0.00 0.00 50 1011.5
20260504012244 11 257 0.0 0.0 0.00 0.00 0.00 50 1011.5
20260504011744 11 257 0.0 0.0 0.00 0.00 0.00 49 1011.5
20260504011241 11 257 0.0 0.0 0.00 0.00 0.00 49 1011.4
20260504010745 11 257 0.0 1.6 0.00 0.00 0.00 47 1011.4
20260504010242 12 257 0.0 1.6 0.00 0.00 0.00 45 1011.4
20260504005747 12 257 0.0 0.0 0.00 0.00 0.00 45 1011.3
20260504005241 12 257 0.0 0.0 0.00 0.00 0.00 44 1011.3
20260504004742 12 257 0.0 0.0 0.00 0.00 0.00 42 1011.3
20260504004244 12 257 0.0 0.0 0.00 0.00 0.00 42 1011.2
20260504003741 13 257 0.0 0.0 0.00 0.00 0.00 42 1011.2
20260504003241 13 257 0.0 0.0 0.00 0.00 0.00 40 1011.2
20260504002747 13 257 0.0 1.6 0.00 0.00 0.00 38 1011.0
20260504002244 14 257 0.0 0.0 0.00 0.00 0.00 34 1011.0
20260504001741 14 257 0.0 0.0 0.00 0.00 0.00 35 1011.0
20260504001241 14 257 0.0 0.0 0.00 0.00 0.00 37 1010.9
20260504000745 15 257 0.0 0.0 0.00 0.00 0.00 34 1010.9
20260504000242 15 257 0.0 1.6 0.00 0.00 0.00 33 1010.9
20260503235741 15 257 0.0 1.6 0.00 0.00 0.00 28 1010.8
20260503235241 15 257 0.0 1.6 0.00 0.00 0.00 27 1010.8
20260503234741 15 257 0.0 3.2 0.00 0.00 0.00 27 1010.8
20260503234250 15 257 0.0 4.8 0.00 0.00 0.00 28 1010.7
20260503233741 15 257 1.6 4.8 0.00 0.00 0.00 27 1010.7
20260503233241 15 257 4.8 9.7 0.00 0.00 0.00 26 1010.7
20260503232741 16 257 1.6 9.7 0.00 0.00 0.00 26 1010.4
20260503232244 16 260 3.2 16.1 0.00 0.00 0.00 25 1010.4
20260503231741 16 269 6.4 14.5 0.00 0.00 0.00 25 1010.4
20260503231241 16 243 4.8 11.3 0.00 0.00 0.00 25 1010.3
20260503230744 16 267 9.7 14.5 0.00 0.00 0.00 25 1010.3
20260503230241 16 225 8.0 17.7 0.00 0.00 0.00 25 1010.3
20260503225742 16 263 3.2 12.9 0.00 0.00 0.00 25 1010.6
20260503225244 16 232 6.4 14.5 0.00 0.00 0.00 24 1010.6
20260503224741 16 257 1.6 11.3 0.00 0.00 0.00 25 1010.6
20260503224241 16 264 3.2 14.5 0.00 0.00 0.00 25 1010.6
20260503223744 16 296 11.3 11.3 0.00 0.00 0.00 25 1010.6
20260503223242 16 342 1.6 17.7 0.00 0.00 0.00 26 1010.6
20260503222747 16 306 6.4 11.3 0.00 0.00 0.00 26 1010.5
20260503222244 16 239 1.6 20.9 0.00 0.00 0.00 24 1010.5
20260503221741 16 282 6.4 16.1 0.00 0.00 0.00 25 1010.5
20260503221244 16 325 3.2 14.5 0.00 0.00 0.00 26 1010.7
20260503220744 16 263 1.6 14.5 0.00 0.00 0.00 25 1010.7
20260503220241 16 13 6.4 17.7 0.00 0.00 0.00 25 1010.7
20260503215741 16 281 9.7 11.3 0.00 0.00 0.00 26 1010.7
20260503215250 16 319 4.8 17.7 0.00 0.00 0.00 24 1010.6
20260503214745 16 42 4.8 19.3 0.00 0.00 0.00 25 1010.6
20260503214241 16 292 9.7 20.9 0.00 0.00 0.00 24 1010.5
20260503213741 17 253 4.8 19.3 0.00 0.00 0.00 25 1010.5
20260503213241 17 268 4.8 12.9 0.00 0.00 0.00 24 1010.5
20260503212747 17 327 6.4 22.5 0.00 0.00 0.00 24 1010.4
20260503212244 17 270 6.4 16.1 0.00 0.00 0.00 25 1010.4
20260503211741 17 24 8.0 14.5 0.00 0.00 0.00 25 1010.4
20260503211241 17 261 6.4 19.3 0.00 0.00 0.00 25 1010.6
20260503210741 17 24 8.0 20.9 0.00 0.00 0.00 25 1010.6
20260503210244 17 246 1.6 16.1 0.00 0.00 0.00 25 1010.6
20260503205747 17 342 14.5 19.3 0.00 0.00 0.00 26 1010.6
20260503205244 17 0 11.3 16.1 0.00 0.00 0.00 26 1010.6
20260503204747 17 332 9.7 12.9 0.00 0.00 0.00 28 1010.6
20260503204247 16 5 9.7 22.5 0.00 0.00 0.00 25 1010.7
20260503203751 17 314 6.4 19.3 0.00 0.00 0.00 25 1010.7
20260503203248 16 238 3.2 22.5 0.00 0.00 0.00 25 1010.7
20260503202746 16 19 6.4 19.3 0.00 0.00 0.00 26 1010.7
20260503202241 17 333 9.7 12.9 0.00 0.00 0.00 25 1010.7
20260503201747 17 5 9.7 17.7 0.00 0.00 0.00 25 1010.7
20260503201247 17 266 6.4 16.1 0.00 0.00 0.00 24 1011.1
20260503200742 17 220 4.8 17.7 0.00 0.00 0.00 26 1011.1
20260503200247 17 314 4.8 19.3 0.00 0.00 0.00 26 1011.1
20260503195744 17 274 3.2 20.9 0.00 0.00 0.00 26 1011.3
20260503195241 17 231 3.2 27.4 0.00 0.00 0.00 24 1011.3
20260503194744 17 246 9.7 22.5 0.00 0.00 0.00 26 1011.3
20260503194248 17 273 3.2 14.5 0.00 0.00 0.00 26 1011.5
20260503193750 17 258 3.2 16.1 0.00 0.00 0.00 27 1011.5
20260503193242 17 335 6.4 27.4 0.00 0.00 0.00 28 1011.5
20260503192750 17 28 6.4 17.7 0.00 0.00 0.00 27 1011.6
20260503192247 16 270 3.2 20.9 0.00 0.00 0.00 27 1011.6
20260503191744 16 242 11.3 17.7 0.00 0.00 0.00 28 1011.6
20260503191242 16 9 4.8 19.3 0.00 0.00 0.00 29 1011.7
20260503190744 16 239 3.2 19.3 0.00 0.00 0.00 27 1011.7
20260503190245 16 313 3.2 20.9 0.00 0.00 0.00 27 1011.7
20260503185742 17 272 11.3 19.3 0.00 0.00 0.00 27 1011.7
20260503185244 17 244 11.3 22.5 0.00 0.00 0.00 27 1011.7
20260503184748 17 243 6.4 24.1 0.00 0.00 0.00 26 1011.7
20260503184241 17 259 8.0 14.5 0.00 0.00 0.00 27 1012.1
20260503183744 16 0 4.8 16.1 0.00 0.00 0.00 27 1012.1
20260503183244 17 270 12.9 27.4 0.00 0.00 0.00 27 1012.1
20260503182750 16 266 12.9 20.9 0.00 0.00 0.00 27 1012.1
20260503182245 16 264 8.0 19.3 0.00 0.00 0.00 27 1012.0
20260503181745 16 304 12.9 20.9 0.00 0.00 0.00 29 1012.0
20260503181242 16 317 4.8 22.5 0.00 0.00 0.00 27 1012.1
20260503180741 16 224 6.4 17.7 0.00 0.00 0.00 32 1012.1
20260503180244 16 342 6.4 24.1 0.00 0.00 0.00 28 1012.1
20260503175741 16 239 14.5 22.5 0.00 0.00 0.00 26 1012.2
20260503175245 16 259 12.9 27.4 0.00 0.00 0.00 28 1012.2
20260503174741 16 237 4.8 14.5 0.00 0.00 0.00 28 1012.2
20260503174241 16 277 6.4 22.5 0.00 0.00 0.00 30 1012.2
20260503173741 16 213 4.8 22.5 0.00 0.00 0.00 29 1012.2
20260503173241 16 355 9.7 20.9 0.00 0.00 0.00 32 1012.1
20260503172742 15 355 16.1 27.4 0.00 0.00 0.00 32 1012.3
20260503172245 15 342 8.0 17.7 0.00 0.00 0.00 29 1012.3
20260503171747 15 355 8.0 24.1 0.00 0.00 0.00 30 1012.3
20260503171241 15 0 12.9 27.4 0.00 0.00 0.00 30 1012.6
20260503170747 15 305 6.4 17.7 0.00 0.00 0.00 32 1012.6
20260503170244 15 238 20.9 24.1 0.00 0.00 0.00 29 1012.6
20260503150750 12 327 9.7 20.9 0.00 0.00 0.00 32 1013.0
20260503150244 12 19 3.2 22.5 0.00 0.00 0.00 31 1013.0
20260503140241 9 332 8.0 20.9 0.00 0.00 0.00 41 1013.1
20260503131242 7 15 3.2 16.1 0.00 0.00 0.00 52 1013.2
20260503130741 7 0 6.4 20.9 0.00 0.00 0.00 53 1013.2
20260503130241 7 323 4.8 17.7 0.00 0.00 0.00 53 1013.2
20260503110741 5 330 3.2 9.7 0.00 0.00 0.00 66 1012.1
20260503110242 5 330 3.2 9.7 0.00 0.00 0.00 66 1012.1